Weather in Pangodi

Russia / Yamalo-Nenets Autonomous Okrug     65°51′28″N   74°29′25″E
temp.,
°C
wind,
m/s
gust,
m/s
humid.,
%
clouds,
%
prec.,
mm/h
press.,
hPa
HPBL,
m
27 february, sat
sat2723:00−25w129991 0.1 102320
02:00−27w1110085 0.0 102219
05:00−28wnw1210088 0.1 102319
08:00−29nw1110099 0.0 102319
11:00−26nw119793 0.1 102442
14:00−25ese119417 0.0 102456
17:00−29s1110015 0.0 102519
20:00−29se229828 0.0 102519
28 february, sun
sun2823:00−29s339736 0.0 102519
02:00−30s339940 0.0 102519
05:00−30sse349845 0.0 102622
08:00−29sse449958 0.0 102546
11:00−26s469655 0.0 1025180
14:00−23s46940 0.0 1025227
17:00−26s45960 0.0 102543
20:00−28s45940 0.0 102553
1 march, mon
mon123:00−28s459511 0.0 102557
02:00−29s459512 0.0 102461
05:00−29s459426 0.0 102355
08:00−28s479399 0.0 1022117
11:00−25ssw589296 0.0 1022250
14:00−23s6109298 0.0 1020282
17:00−24s599499 0.0 1019144
20:00−25s7129121 0.0 1018182
2 march, tue
tue223:00−26s6118915 0.0 1017197
02:00−26s7138762 0.0 1016218
05:00−26s7138975 0.0 1016230
08:00−25s81590100 0.0 1014267
11:00−22s9158799 0.0 1014351
14:00−20s91486100 0.0 1014402
17:00−20s81587100 0.0 1013352
20:00−21s91686100 0.0 1013336
3 march, wed
wed323:00−22s81486100 0.0 1013309
02:00−23s71491100 0.0 1013275
05:00−23s71494100 0.0 1013264
08:00−24s81494100 0.0 1012270
11:00−22s81494100 0.0 1013348
14:00−20s91492100 0.0 1012413
17:00−20s81493100 0.0 1012339
20:00−21s8149399 0.0 1011312